Wind_Speed
20 20 20 19 19 17 16 17 17 16 16 16 15 13 12 11 11 12 14 12 11 10 9 9 9 9 9 10 10 10 10 10 10 11 9 8 9 9 11 10 8 4 7
23 23 23 22 22 21 19 17 16 16 17 18 16 15 15 14 13 12 12 13 13 13 12 12 10 10 11 11 12 12 11 10 11 11 11 6 7 10 11 11 10 6 6
26 26 26 25 25 24 22 22 20 19 18 18 19 18 16 16 15 15 14 14 15 15 15 14 13 12 12 11 14 14 14 13 12 11 11 10 9 9 12 14 12 9 7
29 29 28 29 29 29 27 26 25 24 23 20 18 18 18 17 16 17 16 17 16 16 17 17 16 15 15 15 14 14 14 15 14 13 13 13 12 12 14 14 13 9 8
29 32 32 32 32 31 31 30 28 29 28 27 22 21 19 19 18 19 18 18 18 18 18 18 17 17 17 16 15 16 16 16 16 16 16 15 15 16 16 16 13 10 9
32 29 34 39 36 37 35 35 34 32 31 27 26 27 24 21 22 20 20 20 21 20 19 20 20 20 18 19 19 19 19 18 19 19 19 19 18 18 16 14 14 16 16
26 29 37 41 42 44 42 40 37 38 36 34 30 30 28 23 26 25 24 24 24 23 22 21 22 23 21 23 22 22 21 21 21 22 22 22 20 18 17 18 19 18 19
26 29 33 35 42 47 48 47 44 44 42 39 38 35 32 33 31 31 29 29 27 26 26 27 25 26 26 27 26 25 25 25 24 24 24 25 23 23 22 21 22 21 22
28 29 35 31 34 47 50 50 53 49 48 45 42 39 38 38 36 35 33 33 34 32 31 30 29 28 29 31 30 29 29 29 27 28 28 28 28 28 27 27 27 25 24
30 30 29 37 40 44 47 55 56 51 53 48 45 45 43 44 41 40 35 34 37 36 36 37 34 35 32 32 33 34 34 33 32 31 32 32 33 32 32 30 28 29 29
30 31 29 28 34 35 40 52 47 49 49 47 45 48 51 46 44 39 40 43 43 42 39 40 41 38 41 41 40 40 40 38 37 38 37 37 37 36 38 34 35 36 34
31 32 29 27 25 30 38 45 48 53 50 52 43 43 44 46 45 41 40 46 47 48 45 41 45 46 47 46 46 45 44 42 44 43 43 45 44 44 44 43 41 40 42
35 33 30 27 27 30 21 22 31 47 39 29 35 38 39 36 30 32 29 28 37 41 39 36 33 37 43 41 45 54 54 55 55 52 52 48 45 49 50 50 50 49 48
38 36 35 33 31 39 30 27 30 21 25 26 21 23 28 31 32 30 29 29 29 28 30 31 34 35 36 38 36 37 37 40 39 45 51 54 50 49 51 53 52 53 55
44 42 38 35 33 36 34 34 31 28 27 30 28 29 29 29 32 30 30 32 34 35 35 36 37 38 38 39 40 41 43 42 41 40 43 46 48 49 52 54 54 54 54
45 43 38 37 32 27 36 38 37 37 36 37 39 42 45 42 40 41 43 43 40 40 40 41 44 45 46 45 46 47 48 48 48 48 48 49 49 51 50 50 52 54 56
45 43 44 39 38 41 38 43 41 36 38 37 47 46 46 47 43 46 47 48 50 54 55 53 56 55 55 57 56 55 55 55 56 56 54 54 54 55 56 55 56 57 56
50 50 54 54 53 52 51 49 47 48 46 47 49 50 49 49 53 53 55 55 57 57 57 59 58 58 59 59 59 59 60 62 60 62 62 63 64 62 61 62 62 63 65
55 54 57 56 59 58 55 52 52 52 52 52 53 57 59 59 57 60 62 60 58 58 58 58 58 57 57 59 61 61 60 61 62 64 65 66 66 67 68 69 71 72 72
37 46 50 57 64 68 66 58 57 55 55 55 57 60 61 60 59 59 59 58 57 57 56 57 58 58 59 60 61 61 61 61 61 60 61 62 64 66 68 71 74 76 79
43 48 36 33 37 36 39 49 53 54 57 59 59 55 54 56 52 50 52 53 54 55 58 60 61 62 63 64 65 66 67 68 70 72 73 73 74 76 79 80 81 82 82
37 38 43 44 42 41 43 43 40 42 49 50 49 46 49 50 51 52 54 55 56 58 60 62 64 65 67 69 71 73 75 77 79 81 83 84 85 88 91 92 93 95 95
40 40 41 40 41 43 45 47 48 50 50 52 54 53 55 56 57 58 59 60 61 62 64 67 68 70 72 73 75 76 78 81 83 85 88 91 95 97 97 97 96 95 96
43 45 44 46 47 48 49 50 51 51 53 53 55 56 57 58 59 61 62 63 65 67 68 70 71 72 74 75 76 78 80 83 86 89 92 94 95 96 98 100 101 100 101
50 51 49 49 47 48 51 51 52 53 54 56 58 58 59 59 60 61 63 63 62 63 64 66 67 69 70 72 74 76 78 80 85 88 91 93 95 98 99 99 100 100 100
52 52 50 51 50 53 52 51 50 52 52 51 52 53 53 54 55 55 56 56 58 60 62 64 64 65 64 60 60 63 69 75 77 78 79 78 76 74 73 72 72 72 73
Wind_Direction
228 233 234 235 239 230 229 225 223 229 229 229 231 228 224 224 230 235 236 235 246 254 261 262 266 266 275 279 286 288 282 280 279 288 294 301 304 306 310 318 319 312 299
231 232 235 235 239 243 237 236 230 226 232 230 231 232 232 230 228 228 236 242 240 243 249 257 261 267 270 274 280 284 285 285 286 287 293 293 294 298 300 309 319 302 284
234 236 237 238 237 240 243 238 234 237 233 233 237 233 230 230 230 232 235 239 245 248 248 252 257 262 268 272 281 286 288 288 286 287 288 289 282 281 290 301 310 303 281
235 238 237 238 239 240 240 244 243 237 237 235 232 238 239 238 239 240 241 240 244 252 259 260 259 260 261 267 272 278 283 286 288 286 286 285 286 286 289 289 293 285 285
245 245 246 240 237 238 242 243 245 245 240 235 235 241 241 239 238 243 247 246 248 251 257 261 263 262 264 266 270 272 271 277 278 278 279 277 278 282 286 289 288 287 281
245 243 246 245 240 240 239 242 244 244 250 249 243 241 241 245 248 251 254 249 248 247 253 260 262 262 262 263 266 267 269 271 275 275 274 276 278 280 283 275 279 283 288
252 255 248 248 247 241 244 243 244 244 242 247 243 244 245 243 248 253 254 253 256 256 254 256 260 260 263 261 261 264 265 268 272 275 278 275 275 275 273 275 274 274 279
268 261 250 246 242 243 245 241 244 245 244 241 245 244 246 245 247 249 255 258 257 255 254 257 260 262 260 262 262 263 266 269 268 271 270 272 273 272 269 268 269 274 276
262 270 250 246 243 244 245 238 240 241 245 245 243 244 249 249 249 252 250 251 255 256 254 256 257 257 259 262 263 261 261 262 266 267 270 270 271 272 272 271 271 269 266
265 272 275 243 249 251 243 238 242 243 240 244 245 244 243 249 248 250 248 251 250 253 257 255 255 255 254 255 259 261 263 266 263 264 266 269 271 271 271 270 271 270 268
265 271 269 273 252 244 246 238 237 240 244 242 243 250 244 245 246 251 255 256 254 254 255 256 262 263 261 259 258 259 260 263 262 267 266 266 269 270 271 271 273 272 268
257 267 264 266 264 233 235 243 233 244 244 248 234 252 239 247 248 252 258 253 254 254 256 256 262 263 262 264 264 265 263 260 265 265 266 266 265 264 266 267 266 266 269
250 260 261 260 256 238 225 233 230 235 226 220 236 227 232 242 246 245 248 251 250 251 255 259 260 259 262 266 266 263 264 265 268 270 268 267 271 265 263 266 269 270 269
248 252 252 258 251 245 248 251 232 225 229 220 216 228 238 241 246 251 254 258 256 255 257 260 263 266 266 268 271 271 275 272 275 266 265 271 276 272 269 268 266 265 266
242 239 249 251 249 250 250 246 245 238 237 239 228 235 241 248 251 254 261 264 267 267 267 268 270 272 273 275 276 277 278 277 278 276 270 274 279 279 278 275 274 270 270
251 240 244 247 252 238 239 229 229 232 229 228 229 235 235 234 239 249 251 253 263 270 271 274 277 276 273 272 273 276 277 277 277 275 270 272 275 276 279 280 279 275 273
237 258 243 246 246 247 253 241 255 256 254 255 243 245 243 240 252 258 255 254 261 263 261 262 267 268 273 276 276 276 274 273 274 276 277 275 274 275 276 276 276 276 276
248 242 245 250 251 252 253 253 252 257 258 254 255 254 255 258 262 262 262 260 264 267 267 268 268 269 271 272 272 272 271 273 274 273 273 275 276 278 277 277 277 277 278
251 242 251 253 253 251 250 250 251 256 259 258 258 255 258 257 260 266 265 266 267 268 268 269 270 273 274 275 275 275 274 272 272 273 274 274 273 274 275 276 277 277 277
231 237 238 245 249 250 251 249 249 254 255 258 259 263 264 265 266 267 269 271 271 271 270 271 272 274 275 276 277 277 279 279 278 276 275 275 276 277 277 278 277 275 275
282 282 282 264 260 263 261 256 256 259 261 264 265 268 269 270 270 269 268 269 271 271 272 273 274 276 276 276 276 276 277 277 277 278 279 279 280 281 281 281 280 278 276
266 265 272 279 279 277 277 274 268 264 262 261 263 266 268 270 272 273 273 273 273 273 274 275 276 276 276 276 276 276 277 277 277 278 278 279 279 279 279 279 279 278 278
260 257 258 257 256 259 262 262 263 265 267 268 267 267 266 269 271 272 273 274 274 276 277 278 278 279 279 279 279 279 280 280 279 279 278 277 277 277 277 277 277 278 278
258 259 256 255 256 256 255 256 258 260 262 263 264 265 267 268 268 269 270 271 272 273 274 274 275 277 278 278 280 281 280 281 280 279 278 278 278 277 277 277 279 279 280
249 256 257 257 255 256 257 258 259 260 261 262 263 264 265 267 268 270 271 272 273 275 277 278 279 279 281 281 282 281 280 278 278 277 277 277 277 276 277 277 277 277 277
256 255 253 255 252 257 257 260 260 263 263 263 264 265 267 269 270 271 272 272 275 277 278 280 281 281 282 281 281 282 282 281 283 284 283 282 280 279 279 280 279 279 279
Height
5931 5935 5938 5939 5941 5942 5944 5946 5949 5951 5952 5953 5954 5956 5958 5960 5961 5963 5965 5966 5967 5969 5970 5970 5971 5971 5971 5970 5970 5969 5970 5970 5969 5968 5968 5968 5966 5966 5965 5964 5963 5963 5960
5927 5931 5934 5936 5938 5940 5942 5944 5946 5948 5949 5951 5951 5953 5955 5957 5959 5961 5962 5964 5965 5966 5967 5968 5969 5969 5969 5969 5968 5968 5967 5968 5968 5967 5966 5967 5966 5964 5963 5962 5961 5961 5960
5923 5926 5930 5933 5934 5937 5939 5940 5942 5944 5947 5948 5949 5950 5953 5954 5956 5958 5959 5961 5963 5964 5965 5966 5967 5967 5968 5968 5967 5967 5966 5966 5966 5965 5965 5964 5964 5963 5963 5960 5960 5960 5960
5917 5921 5925 5928 5931 5933 5935 5938 5940 5940 5942 5943 5945 5947 5949 5951 5953 5954 5956 5957 5959 5961 5962 5964 5964 5965 5964 5965 5965 5965 5964 5964 5963 5963 5963 5962 5961 5960 5960 5959 5958 5958 5958
5912 5915 5918 5921 5924 5927 5930 5933 5935 5937 5937 5939 5940 5942 5945 5947 5949 5951 5952 5954 5955 5956 5958 5960 5961 5961 5961 5961 5961 5961 5961 5960 5960 5960 5959 5959 5959 5957 5957 5956 5956 5955 5955
5905 5908 5911 5913 5916 5919 5922 5926 5928 5931 5932 5934 5936 5938 5939 5943 5944 5945 5947 5948 5949 5950 5952 5954 5956 5956 5957 5957 5957 5957 5957 5957 5957 5957 5956 5956 5956 5955 5954 5953 5953 5953 5952
5897 5899 5901 5904 5908 5911 5914 5917 5921 5924 5926 5929 5931 5934 5936 5938 5938 5939 5940 5942 5943 5945 5947 5948 5949 5950 5952 5951 5952 5952 5952 5952 5952 5953 5953 5952 5951 5951 5950 5950 5949 5949 5949
5891 5891 5893 5895 5897 5900 5905 5908 5911 5915 5918 5921 5924 5927 5932 5932 5931 5933 5935 5935 5937 5939 5941 5941 5943 5945 5946 5945 5946 5947 5946 5946 5947 5948 5947 5946 5947 5946 5945 5945 5945 5945 5944
5884 5884 5884 5885 5888 5891 5894 5897 5901 5904 5909 5912 5914 5921 5922 5923 5924 5925 5926 5929 5930 5932 5932 5935 5936 5937 5938 5939 5940 5940 5940 5940 5940 5940 5940 5940 5939 5939 5940 5940 5939 5938 5938
5876 5876 5875 5875 5878 5880 5882 5884 5890 5894 5897 5902 5905 5910 5912 5913 5914 5916 5918 5919 5920 5923 5925 5926 5927 5928 5929 5930 5931 5932 5933 5933 5933 5932 5932 5932 5932 5932 5931 5932 5933 5932 5931
5868 5869 5869 5869 5869 5870 5872 5873 5879 5883 5887 5890 5894 5897 5899 5903 5905 5906 5908 5908 5910 5912 5914 5918 5918 5920 5920 5920 5921 5921 5923 5924 5924 5925 5925 5923 5924 5925 5923 5926 5925 5924 5924
5862 5861 5862 5862 5863 5862 5864 5865 5868 5871 5875 5879 5880 5885 5889 5893 5896 5896 5897 5896 5898 5901 5904 5905 5907 5908 5910 5911 5910 5910 5911 5912 5914 5915 5914 5912 5913 5912 5912 5912 5913 5914 5912
5853 5854 5855 5857 5857 5857 5856 5857 5857 5860 5862 5866 5870 5872 5878 5883 5883 5884 5886 5886 5887 5890 5893 5895 5895 5896 5898 5900 5899 5900 5899 5898 5899 5901 5902 5902 5900 5899 5901 5901 5901 5902 5901
5842 5845 5847 5849 5849 5851 5852 5852 5853 5855 5857 5858 5861 5867 5871 5874 5876 5878 5880 5880 5880 5881 5881 5884 5886 5887 5888 5888 5888 5888 5887 5886 5884 5884 5887 5886 5887 5886 5885 5885 5887 5887 5887
5832 5835 5838 5841 5841 5842 5844 5845 5847 5849 5852 5855 5858 5861 5865 5865 5868 5869 5870 5871 5872 5872 5871 5873 5874 5875 5875 5876 5876 5876 5875 5875 5874 5874 5871 5872 5872 5872 5872 5872 5870 5870 5872
5823 5825 5827 5831 5833 5834 5836 5837 5839 5842 5844 5846 5848 5851 5853 5854 5856 5858 5859 5859 5860 5860 5859 5860 5861 5862 5864 5864 5864 5864 5863 5863 5863 5860 5862 5860 5859 5859 5859 5858 5856 5855 5855
5808 5813 5818 5821 5824 5826 5827 5830 5831 5834 5836 5838 5840 5839 5842 5844 5844 5846 5846 5847 5849 5850 5851 5851 5851 5850 5850 5851 5850 5849 5849 5849 5847 5848 5846 5846 5844 5843 5844 5845 5842 5841 5840
5801 5805 5806 5808 5810 5813 5816 5817 5819 5822 5825 5827 5829 5831 5832 5833 5834 5834 5835 5837 5837 5836 5836 5836 5837 5836 5836 5835 5835 5836 5836 5833 5833 5831 5831 5830 5827 5828 5826 5825 5825 5824 5823
5787 5787 5792 5794 5796 5798 5800 5803 5805 5807 5810 5813 5814 5816 5817 5819 5819 5820 5821 5821 5821 5820 5821 5820 5821 5819 5819 5819 5819 5819 5818 5818 5817 5815 5815 5814 5814 5812 5812 5809 5807 5806 5805
5769 5772 5775 5778 5782 5784 5786 5789 5791 5793 5795 5798 5800 5801 5802 5803 5803 5804 5804 5803 5803 5803 5804 5804 5804 5803 5802 5802 5801 5800 5799 5798 5797 5797 5796 5795 5794 5793 5791 5790 5790 5789 5787
5754 5755 5759 5762 5765 5767 5769 5773 5775 5777 5779 5781 5783 5783 5785 5785 5787 5787 5788 5788 5788 5787 5787 5787 5786 5785 5785 5784 5783 5783 5782 5781 5780 5778 5776 5774 5772 5770 5768 5767 5765 5764 5763
5746 5747 5749 5750 5753 5755 5757 5759 5760 5762 5764 5765 5767 5769 5769 5769 5770 5770 5771 5771 5772 5771 5771 5770 5769 5768 5767 5766 5765 5763 5761 5759 5758 5757 5754 5752 5750 5748 5745 5741 5739 5736 5733
5733 5736 5737 5738 5740 5743 5744 5746 5747 5748 5749 5751 5751 5753 5752 5753 5753 5753 5753 5753 5753 5753 5752 5750 5749 5747 5746 5744 5742 5740 5738 5737 5735 5733 5732 5729 5726 5721 5717 5714 5710 5708 5704
5718 5720 5722 5723 5726 5728 5729 5731 5732 5733 5734 5735 5736 5737 5737 5737 5737 5738 5739 5738 5737 5736 5735 5734 5732 5730 5728 5725 5722 5719 5717 5714 5712 5709 5705 5702 5696 5691 5687 5685 5681 5678 5676
5702 5705 5707 5709 5711 5712 5713 5714 5715 5718 5719 5719 5720 5721 5722 5722 5722 5722 5723 5721 5720 5718 5717 5715 5712 5709 5706 5702 5700 5697 5693 5690 5687 5681 5678 5674 5670 5665 5660 5657 5653 5649 5644
5685 5688 5691 5692 5694 5695 5697 5698 5699 5700 5702 5704 5705 5705 5705 5706 5705 5705 5705 5705 5702 5700 5698 5695 5693 5690 5687 5684 5681 5677 5672 5667 5663 5658 5653 5648 5643 5638 5633 5629 5626 5622 5619